Showing default

QIANKUN-1, 57422

Orbit data source: Space-Track

QIANKUN-1, 57422 is a payload satellite owned by Saisi Besi (CN) in SSO that was launched on Sat, 22 Jul 2023 UTC via a GUSHENXING 1 launch vehicle from the Jiuquan Satellite Launch Center, China (JSC). Payload-class satellites include a variety of spacecraft equipped with specific instruments for various scientific and technological missions. These include communications satellites like Starlink; space stations such as the ISS; scientific satellites like the Hubble; Earth observation satellites from companies like Planet Labs, Umbra, and HawkEye 360; GPS; miniature CubeSats for education and research; and military/defense satellites.

Not visible in the next 10 days
Identifier
57422, 2023-103B
Orbit
SSO
Country
Flag of CNCN / PRC
Related business
Manufacturer
Saisi Besi
Mission
Operational Commercial Imaging
Bus & Motor
QK-1, Unknown motor
Mass
200 kg wet, 200 kg dry
Launch date (UTC)
2023-07-22 (3 years ago)
Launch vehicle
GUSHENXING 1
Launch site
Jiuquan Satellite Launch Center, China (JSC)
Object type
Payload
Rocket body
Debris
Shape & HBR
Box, 0.8 m
Radar Cross Section
0.875 m², Large (>1 m²)

Expand to show TLE details & history
Last TLE update: 2 days ago

TLE from 2 days ago
0 QIANKUN-1
1 57422U 23103B   26171.15817264  .00019183  18178-5  22915-4 0  9995
2 57422  96.1527 215.7959 0032014 149.2714 211.0455 16.07655077167778
Epoch: 2026-06-20T03:47Z
TLE epoch observation values (Epoch: 2026-06-20T03:47:46.116Z)
Latitude
-0°
Longitude
-109.52306°
Altitude
274.738 km
Speed
7.732 km/s
True Right ascension
14h 23m 11s
True Declination
0° 00' 00"
Sunlit
Object was in full shadow at epoch
Visualization orbit readout
Latitude
Unknown
Longitude
Unknown
Altitude
Unknown
Speed
Unknown
Apparent Right ascension
Unknown
Apparent Declination
Unknown
Sunlit
N/A
Visualization observer readout
Local Sidereal Time
21:30:54
Azimuth
Unknown
Elevation
Unknown
Doppler factor
Unknown
Orbital elements
Apogee altitude
271.302 km
Perigee altitude
228.863 km
Semi-major axis
6,628.22 km
Eccentricity
0.0032
Inclination
96.1527°
RAAN
215.7959°
Arg. of periapsis
149.2714°
True anomaly
210.85695°
Mean anomaly
211.0455°
Eccentric anomaly
210.95116°
Mean motion
4.02205 °/min
Orbital period
89.51 mins
BSTAR
0.000022915
Loading maneuver chart data...
Computing Atmospheric mass density...
Loading historical data...
Loading historical data...
Loading historical data...
Loading historical data...
Loading historical data...
Loading historical data...
Loading historical data...
Other satellites on launch #103 in the year 2023 (2023-07-22 UTC)

Documentation

Showing up to 5 results
|